Location: Antioch Baptist Church
(32.6696°N, 85.7327°W)
Time: 00:54:28
(UTC+00:00)

IDEFIX/ARIANE 42P - Pass Details

Date: 14 July 2020
Orbit: 784 x 804 km, 98.4° (Epoch: 12 August)

Event Time Altitude Azimuth Distance (km) Brightness Sun altitude
Rises 08:39:42 0° 15° (NNE) 3,281 6.8 -22.1°
Reaches altitude 10° 08:42:03 10° 18° (NNE) 2,348 5.9 -21.8°
Maximum altitude 08:47:13 69° 101° (ESE) 840 2.7 -21.0°
Enters shadow 08:49:47 30° 177° (S) 1,379 3.4 -20.7°
